Home   Weather   Basse-Terre   Past weeks
Flag for Guadeloupe

Past Weather in Basse-Terre, Guadeloupe — Yesterday and Last 2 Weeks

Now
86 °F

Partly sunny.


Feels Like: 93 °F
Forecast: 85 / 77 °F
Wind: 10 mph from East

Location: Le Raizet - Guadeloupe

Current Time: Oct 21, 2019 at 1:57:02 pm

Latest Report: Oct 21, 2019 at 1:00 pm


Visibility: N/A

Pressure: 29.89 "Hg

Humidity: 66%

Dew Point: 73 °F

Location of Basse-TerreLocation

Past Weather in Basse-Terre — Graph

°F

Basse-Terre Temperature Yesterday

Maximum temperature yesterday: 88 °F (at 11:30 am)
Minimum temperature yesterday: 75 °F (at 1:00 am)
Average temperature yesterday: 81 °F

High & Low Weather Summary for the Past Weeks

 TemperatureHumidityPressure
High90 °F (Oct 6, 12:00 pm)100% (Oct 11, 11:30 pm)30.01 "Hg (Oct 11, 11:30 pm)
Low72 °F (Oct 11, 6:00 am)52% (Oct 10, 12:00 pm)29.80 "Hg (Oct 10, 3:00 pm)
Average81 °F80%29.92 "Hg
* Reported Oct 6 12:00 pm — Oct 21 12:30 pm, Basse-Terre. Weather by CustomWeather, © 2019

Note: Actual official high and low records may vary slightly from our data, if they occured in-between our weather recording intervals... More about our weather records

Advertising

Basse-Terre Weather History for the Previous 24 Hours

Scroll right to see more
 ConditionsComfort  
Time TempWeatherWind HumidityBarometerVisibility
12:30 pm
Mon, Oct 21
82 °FPartly sunny.12 mph74%29.92 "HgN/A
12:00 pm84 °FPartly sunny.9 mph74%29.92 "HgN/A
11:30 am86 °FBroken clouds.13 mph62%29.92 "HgN/A
11:00 am86 °FPartly sunny.12 mph62%29.95 "HgN/A
10:30 am88 °FPassing clouds.13 mph62%29.95 "HgN/A
10:00 am84 °FScattered clouds.13 mph74%29.95 "HgN/A
9:30 am86 °FBroken clouds.13 mph66%29.95 "HgN/A
9:00 am86 °FScattered clouds.9 mph70%29.95 "HgN/A
8:30 am86 °FScattered clouds.8 mph70%29.95 "HgN/A
8:00 am84 °FPassing clouds.2 mph74%29.95 "HgN/A
7:30 am81 °FWarm.2 mph84%29.95 "HgN/A
7:00 am77 °FScattered clouds.No wind100%29.95 "HgN/A
6:30 am75 °FBroken clouds.2 mph100%29.92 "HgN/A
6:00 am75 °FBroken clouds.1 mph94%29.92 "HgN/A
5:30 am75 °FPassing clouds.1 mph94%29.92 "HgN/A
5:00 am75 °FPassing clouds.No wind94%29.89 "HgN/A
4:30 am75 °FClear.3 mph94%29.89 "Hg10 mi
4:00 am75 °FPassing clouds.3 mph94%29.89 "HgN/A
3:30 am77 °FPassing clouds.3 mph94%29.89 "HgN/A
3:00 am77 °FPassing clouds.1 mph94%29.89 "HgN/A
2:30 am77 °FLight rain. Fog.3 mph94%29.89 "Hg3 mi
2:00 am77 °FRain. Passing clouds.3 mph89%29.89 "Hg4 mi
1:30 am77 °FLight rain. Overcast.1 mph89%29.92 "HgN/A
1:00 am79 °FMostly cloudy.2 mph84%29.92 "HgN/A
12:30 am77 °FOvercast.3 mph94%29.92 "HgN/A
12:00 am79 °FPassing clouds.5 mph84%29.95 "HgN/A
11:30 pm
Sun, Oct 20
79 °FPassing clouds.3 mph89%29.95 "HgN/A
11:00 pm79 °FWarm.2 mph89%29.95 "HgN/A
10:30 pm77 °FPassing clouds.2 mph94%29.95 "HgN/A
10:00 pm79 °FPartly cloudy.7 mph84%29.95 "HgN/A
9:30 pm79 °FPassing clouds.1 mph84%29.95 "HgN/A
9:00 pm79 °FClear.1 mph84%29.95 "Hg10 mi
8:00 pm81 °FWarm.2 mph79%29.95 "HgN/A
7:30 pm79 °FPassing clouds.1 mph84%29.92 "HgN/A
7:00 pm81 °FPassing clouds.1 mph79%29.92 "HgN/A
6:30 pm81 °FClear.3 mph74%29.92 "Hg10 mi
6:00 pm82 °FPassing clouds.3 mph74%29.92 "HgN/A
5:30 pm82 °FBroken clouds.8 mph74%29.92 "HgN/A
5:00 pm84 °FScattered clouds.8 mph70%29.92 "HgN/A
4:30 pm84 °FBroken clouds.14 mph70%29.92 "HgN/A
4:00 pm84 °FPartly sunny.13 mph70%29.92 "HgN/A
3:30 pm84 °FPartly sunny.13 mph70%29.92 "HgN/A
3:00 pm86 °FScattered clouds.12 mph66%29.92 "HgN/A
2:30 pm86 °FPartly sunny.12 mph62%29.92 "HgN/A
2:00 pm86 °FPartly sunny.13 mph66%29.92 "HgN/A
1:30 pm86 °FBroken clouds.12 mph66%29.92 "HgN/A
1:00 pm88 °FScattered clouds.10 mph62%29.92 "HgN/A
Weather by CustomWeather, © 2019

See weather overview